Temp
4 4 4 4 4 5 5 5 4 4 4 4 4 4 4 4 4 4 4 4 4 4 4 3 3 2 2 2 1 1 2 1 1 1 1 0 -0 0 2 2 1 1 1
3 3 4 4 4 5 4 4 4 3 4 3 3 4 4 4 4 4 4 5 4 4 3 2 2 2 1 1 2 1 1 1 1 2 1 0 -1 -1 1 1 1 1 0
3 3 3 3 3 4 3 3 3 3 3 3 2 3 3 3 4 4 4 4 4 4 3 2 2 1 2 1 2 1 1 2 1 1 1 -0 -0 -2 -1 0 0 -0 -0
2 2 2 2 2 2 2 2 2 1 1 1 2 3 3 3 4 4 4 4 3 3 3 2 1 1 1 2 1 1 1 1 1 1 1 0 1 0 -2 -1 -0 -0 -0
1 1 1 1 1 2 1 2 1 -0 1 2 3 3 3 3 3 4 4 3 2 2 3 2 1 1 1 1 1 1 1 1 1 1 1 1 0 -0 -1 -1 -1 -1 -2
-0 1 1 1 1 1 0 0 0 1 1 2 3 2 2 3 3 3 3 2 2 2 2 1 0 1 1 1 0 1 1 2 1 2 1 1 0 0 -1 -0 -0 -1 -1
-0 0 1 0 1 0 0 1 1 1 1 2 2 2 3 3 2 2 1 1 1 1 0 0 1 0 0 0 0 1 1 1 1 1 1 1 -0 -0 -1 -1 -1 -1 -1
-1 -1 -0 -1 -0 -0 1 0 -0 1 1 1 2 1 2 2 0 -0 0 -0 -1 0 0 -0 0 0 0 0 0 0 0 0 1 1 0 -0 -1 -0 -1 -1 -1 -1 -1
-1 -1 -1 -0 -0 -1 0 0 0 -0 -0 0 1 1 1 0 -1 -1 -1 0 0 0 -0 0 -0 0 -0 -0 -0 0 1 -0 1 0 -0 -1 -0 -1 -1 -1 -1 -1 -1
-3 -2 -1 -1 -1 -1 -0 -0 0 -0 0 0 -1 -0 -0 -1 -0 -1 -1 0 0 -0 -0 -0 -0 -1 -0 -1 -1 -0 0 0 -0 -0 -0 -1 -1 -0 -0 -1 -1 -1 -2
-5 -4 -3 -2 -2 -1 -1 -1 -1 -0 -0 -0 -0 -1 -0 -1 -0 -1 -1 -1 -0 -0 -0 -0 -1 -0 -1 -1 -1 -1 -1 -1 -1 -1 -1 -1 -1 -1 -1 -1 -1 -1 -1
-6 -6 -5 -5 -4 -4 -4 -3 -3 -3 -2 -2 -2 -2 -2 -1 -1 -1 -2 -2 -1 -1 -1 -1 -1 -1 -1 -1 -1 -1 -1 -1 -1 -1 -1 -1 -1 -1 -1 -1 -2 -2 -2
-6 -6 -6 -6 -6 -6 -6 -5 -5 -4 -5 -5 -4 -3 -3 -4 -3 -2 -1 -2 -2 -2 -1 -1 -1 -1 -1 -2 -2 -1 -1 -1 -1 -1 -1 -1 -2 -2 -2 -2 -1 -2 -2
-6 -6 -6 -6 -6 -6 -6 -6 -6 -6 -6 -5 -6 -6 -6 -6 -5 -5 -4 -4 -3 -2 -2 -2 -2 -2 -2 -1 -2 -1 -1 -1 -2 -2 -2 -2 -2 -2 -2 -2 -2 -2 -2
-7 -7 -6 -6 -6 -6 -6 -6 -6 -6 -6 -6 -7 -7 -7 -7 -7 -7 -7 -7 -7 -7 -7 -7 -6 -5 -4 -3 -3 -2 -3 -3 -3 -3 -3 -3 -3 -3 -4 -4 -5 -5 -6
-7 -7 -7 -7 -7 -7 -6 -7 -7 -7 -7 -7 -7 -7 -7 -7 -8 -8 -8 -8 -8 -8 -8 -8 -8 -8 -7 -7 -7 -7 -7 -6 -6 -6 -7 -7 -7 -7 -7 -7 -7 -7 -7
-7 -7 -7 -7 -7 -7 -7 -7 -8 -8 -8 -8 -8 -8 -8 -8 -8 -8 -8 -9 -9 -9 -9 -9 -8 -8 -8 -8 -8 -8 -8 -8 -8 -8 -8 -8 -7 -7 -7 -8 -8 -8 -9
-8 -8 -8 -8 -8 -8 -8 -8 -8 -9 -9 -9 -9 -9 -9 -9 -9 -9 -9 -9 -9 -10 -9 -9 -9 -9 -9 -9 -9 -9 -9 -9 -9 -9 -9 -9 -10 -10 -10 -10 -10 -11 -11
-9 -9 -9 -9 -9 -9 -9 -10 -10 -10 -10 -10 -10 -10 -11 -11 -11 -11 -11 -11 -11 -11 -11 -11 -11 -11 -11 -10 -10 -10 -10 -10 -11 -11 -11 -11 -11 -11 -11 -11 -11 -12 -12
-10 -10 -10 -10 -10 -10 -11 -11 -11 -11 -12 -12 -12 -12 -13 -13 -13 -13 -13 -13 -13 -13 -13 -13 -13 -13 -12 -13 -13 -13 -13 -13 -13 -13 -13 -13 -13 -13 -13 -14 -14 -14 -14
-11 -11 -11 -12 -12 -12 -13 -13 -13 -13 -13 -14 -14 -15 -15 -14 -15 -15 -15 -15 -15 -15 -15 -15 -15 -14 -14 -14 -14 -14 -14 -14 -15 -15 -15 -15 -14 -14 -14 -15 -15 -15 -15
-12 -13 -13 -14 -14 -15 -15 -15 -15 -15 -16 -16 -16 -16 -16 -16 -16 -16 -16 -16 -16 -17 -17 -16 -16 -16 -16 -16 -16 -16 -16 -16 -16 -16 -16 -16 -16 -16 -16 -16 -16 -16 -16
-14 -14 -15 -15 -16 -16 -17 -17 -17 -17 -17 -17 -17 -18 -18 -18 -18 -18 -18 -18 -18 -18 -18 -18 -18 -18 -18 -18 -17 -17 -17 -17 -17 -17 -17 -17 -17 -17 -17 -18 -18 -18 -18
-15 -16 -16 -17 -17 -18 -18 -19 -19 -19 -19 -19 -19 -19 -19 -19 -19 -19 -19 -19 -20 -20 -20 -20 -19 -19 -19 -19 -19 -19 -19 -19 -19 -19 -19 -19 -19 -19 -19 -19 -19 -19 -19
-17 -17 -18 -18 -19 -19 -20 -20 -20 -20 -20 -20 -20 -20 -21 -21 -20 -20 -20 -20 -21 -21 -21 -21 -21 -21 -20 -20 -20 -20 -20 -20 -20 -20 -20 -20 -20 -20 -20 -20 -20 -20 -20
-18 -18 -19 -19 -20 -20 -21 -21 -21 -21 -21 -22 -22 -22 -22 -22 -22 -22 -22 -22 -22 -22 -22 -22 -22 -21 -21 -21 -21 -21 -21 -21 -21 -21 -21 -21 -21 -21 -21 -21 -21 -21 -21
Height
2973 2977 2983 2989 2994 2999 3003 3009 3012 3016 3019 3023 3025 3026 3029 3031 3033 3036 3039 3040 3039 3040 3039 3038 3039 3040 3040 3043 3046 3048 3049 3052 3057 3060 3066 3069 3072 3079 3083 3085 3089 3092 3094
2967 2972 2977 2982 2987 2991 2996 3001 3005 3008 3012 3014 3015 3018 3022 3025 3027 3029 3031 3031 3030 3029 3029 3029 3030 3032 3031 3033 3034 3038 3040 3045 3047 3052 3057 3059 3063 3070 3075 3078 3081 3083 3085
2964 2966 2970 2974 2980 2985 2989 2994 2998 3000 3004 3006 3009 3012 3016 3018 3020 3022 3023 3022 3020 3019 3018 3017 3019 3019 3021 3021 3024 3028 3031 3035 3039 3043 3047 3050 3055 3058 3065 3070 3071 3073 3077
2961 2964 2967 2971 2975 2979 2983 2987 2990 2992 2994 2999 3003 3006 3009 3012 3014 3014 3014 3013 3012 3010 3008 3006 3007 3007 3010 3011 3014 3016 3022 3025 3029 3033 3038 3040 3045 3048 3054 3061 3063 3066 3069
2959 2961 2965 2967 2970 2974 2977 2979 2980 2982 2988 2993 2996 3000 3002 3005 3005 3005 3006 3005 3004 3002 2998 2996 2995 2995 2998 3000 3003 3005 3010 3013 3017 3022 3026 3029 3034 3039 3043 3049 3054 3059 3061
2955 2956 2959 2957 2964 2967 2970 2968 2974 2980 2984 2986 2989 2993 2994 2995 2998 2998 2999 2997 2996 2994 2989 2986 2985 2985 2987 2989 2990 2994 2998 3002 3007 3011 3015 3018 3024 3030 3034 3038 3044 3047 3051
2954 2953 2956 2958 2961 2962 2967 2971 2973 2976 2979 2981 2983 2984 2986 2989 2990 2991 2990 2989 2988 2987 2983 2980 2978 2977 2977 2980 2983 2986 2989 2994 2997 3001 3005 3009 3014 3020 3026 3030 3034 3038 3042
2954 2953 2952 2953 2951 2958 2962 2966 2970 2972 2973 2974 2976 2981 2981 2982 2983 2984 2984 2984 2982 2981 2978 2974 2971 2971 2971 2972 2975 2977 2981 2984 2986 2990 2997 3003 3007 3013 3017 3022 3026 3028 3031
2952 2953 2953 2952 2955 2952 2956 2963 2965 2967 2969 2971 2972 2973 2974 2975 2976 2977 2977 2978 2977 2975 2973 2971 2967 2966 2966 2968 2970 2970 2973 2976 2979 2984 2990 2994 2998 3004 3008 3012 3016 3019 3020
2954 2953 2953 2954 2953 2955 2957 2956 2962 2963 2964 2965 2966 2966 2968 2969 2969 2969 2971 2971 2971 2971 2969 2968 2967 2966 2965 2963 2963 2964 2967 2971 2977 2978 2983 2988 2990 2994 2998 3001 3004 3006 3007
2956 2956 2956 2956 2955 2954 2956 2955 2957 2957 2958 2958 2959 2955 2958 2960 2962 2962 2962 2964 2965 2965 2963 2963 2962 2963 2963 2963 2964 2965 2965 2967 2968 2970 2975 2979 2981 2983 2986 2990 2992 2995 2996
2963 2961 2960 2958 2957 2956 2954 2953 2953 2952 2953 2953 2953 2951 2948 2950 2951 2954 2954 2955 2957 2958 2958 2957 2957 2958 2959 2960 2960 2960 2961 2962 2964 2966 2968 2970 2972 2974 2976 2978 2981 2984 2986
2966 2964 2963 2961 2959 2958 2957 2956 2954 2952 2951 2950 2948 2947 2947 2946 2944 2944 2945 2947 2946 2948 2949 2950 2950 2952 2952 2953 2954 2954 2956 2957 2958 2959 2961 2962 2962 2964 2966 2969 2972 2974 2976
2970 2968 2966 2965 2962 2961 2959 2957 2955 2953 2952 2950 2949 2948 2946 2944 2941 2942 2940 2939 2939 2938 2940 2940 2941 2942 2944 2945 2946 2947 2947 2948 2949 2951 2952 2953 2955 2956 2957 2959 2960 2961 2963
2972 2970 2968 2965 2964 2962 2960 2958 2956 2954 2953 2951 2949 2948 2947 2946 2945 2943 2941 2939 2938 2935 2935 2932 2932 2933 2933 2934 2935 2936 2937 2938 2939 2940 2941 2942 2943 2945 2947 2948 2949 2951 2953
2973 2971 2968 2966 2963 2961 2959 2957 2956 2954 2952 2950 2948 2947 2945 2944 2943 2943 2942 2940 2937 2935 2935 2934 2932 2931 2930 2929 2929 2929 2930 2930 2931 2932 2934 2935 2936 2937 2938 2939 2941 2942 2943
2974 2971 2969 2966 2963 2961 2958 2956 2954 2952 2950 2949 2946 2945 2943 2941 2940 2939 2939 2937 2935 2933 2932 2931 2930 2929 2928 2927 2927 2927 2928 2928 2927 2928 2929 2930 2931 2932 2933 2934 2934 2935 2936
2972 2969 2966 2963 2960 2958 2956 2953 2951 2948 2946 2944 2942 2940 2938 2937 2935 2934 2932 2931 2930 2929 2928 2927 2926 2925 2923 2923 2923 2922 2922 2923 2923 2923 2923 2924 2924 2924 2925 2926 2927 2928 2929
2970 2966 2963 2959 2956 2953 2951 2948 2946 2944 2941 2939 2936 2934 2932 2930 2928 2927 2925 2924 2923 2922 2921 2919 2918 2918 2917 2917 2916 2916 2916 2916 2916 2916 2916 2917 2917 2918 2918 2919 2919 2920 2921
2967 2963 2959 2956 2953 2950 2946 2943 2940 2937 2934 2932 2929 2927 2925 2923 2921 2920 2918 2917 2916 2914 2914 2912 2912 2911 2909 2909 2909 2909 2909 2909 2909 2909 2910 2911 2911 2911 2911 2912 2912 2913 2913
2963 2959 2955 2951 2948 2944 2941 2938 2934 2931 2928 2924 2922 2920 2918 2915 2914 2912 2911 2910 2909 2908 2907 2905 2904 2903 2903 2904 2903 2904 2903 2903 2904 2904 2904 2905 2905 2905 2905 2905 2905 2905 2905
2957 2954 2950 2946 2942 2939 2935 2931 2928 2925 2921 2918 2915 2913 2910 2908 2906 2904 2902 2901 2900 2899 2898 2897 2897 2897 2897 2897 2897 2898 2897 2897 2897 2897 2898 2898 2898 2897 2897 2897 2897 2897 2897
2951 2947 2943 2939 2935 2932 2928 2924 2921 2917 2914 2911 2908 2906 2903 2900 2898 2897 2895 2894 2892 2891 2890 2890 2889 2889 2889 2890 2890 2890 2890 2890 2889 2889 2889 2890 2890 2890 2890 2890 2889 2889 2891
2945 2941 2936 2932 2928 2924 2920 2917 2913 2910 2907 2904 2900 2898 2896 2894 2892 2889 2888 2887 2885 2884 2883 2883 2882 2882 2882 2882 2882 2882 2881 2882 2882 2882 2882 2882 2883 2883 2883 2883 2883 2883 2883
2938 2933 2928 2924 2919 2915 2912 2908 2905 2902 2899 2896 2893 2891 2888 2886 2884 2883 2881 2880 2879 2878 2877 2876 2876 2876 2876 2875 2875 2875 2874 2875 2875 2875 2875 2875 2876 2876 2877 2876 2877 2877 2876
2928 2924 2919 2915 2911 2907 2903 2900 2897 2894 2891 2888 2885 2883 2881 2879 2877 2876 2874 2873 2872 2871 2871 2870 2869 2869 2869 2869 2869 2868 2868 2868 2868 2868 2868 2868 2869 2869 2869 2869 2869 2870 2869
Wind_Speed
29 31 32 27 33 32 33 32 32 32 32 37 35 31 31 29 29 31 32 34 35 38 38 38 37 35 33 36 34 36 42 35 33 34 40 40 45 44 36 36 36 37 36
24 31 30 32 36 34 30 33 33 32 34 34 29 28 29 26 28 30 32 34 36 37 36 38 34 32 35 42 39 39 38 40 41 37 42 39 33 37 38 39 37 38 39
17 19 24 32 32 31 28 28 30 32 30 29 24 27 25 28 31 31 32 33 35 37 38 36 39 39 41 37 44 45 40 43 40 45 45 45 45 39 43 41 39 40 39
10 14 20 22 26 28 26 30 25 25 28 29 25 22 24 26 28 28 30 32 33 35 36 37 36 39 41 42 44 48 45 46 41 38 49 47 48 45 46 40 39 39 41
22 20 24 22 23 27 24 27 24 21 25 25 23 22 24 25 25 27 29 29 26 27 27 32 39 40 43 41 50 44 41 38 42 45 53 51 48 40 47 44 43 43 43
8 19 19 26 34 24 24 12 18 23 21 21 19 21 20 20 27 29 27 27 27 24 24 28 29 27 29 37 37 35 45 41 47 44 53 51 48 43 43 43 47 52 49
13 14 16 18 20 26 21 16 19 20 20 18 13 15 19 26 27 23 20 22 22 26 22 23 24 22 22 27 27 34 29 38 41 44 48 49 45 45 45 46 50 50 44
8 4 5 13 13 12 16 16 19 20 21 19 22 29 23 20 18 18 20 24 26 26 22 23 21 25 23 24 31 31 35 34 37 36 49 48 39 49 48 47 46 46 47
4 15 12 4 12 14 14 11 18 18 21 20 25 23 25 22 18 17 21 25 25 22 19 20 17 18 16 21 25 30 33 28 43 44 47 42 35 38 38 36 42 46 49
3 7 11 20 16 16 15 15 23 24 22 27 30 29 28 22 23 19 21 18 18 21 22 21 14 12 12 11 13 18 30 41 40 48 34 41 45 48 47 38 40 44 42
26 23 17 9 13 17 21 20 21 25 29 33 35 32 29 28 30 27 25 27 24 23 21 16 17 16 13 18 17 20 25 28 32 40 49 34 38 32 40 43 38 36 33
24 22 20 20 20 18 14 10 12 15 20 24 27 26 18 29 31 28 31 31 34 32 29 23 23 22 19 19 20 17 23 29 23 27 40 36 41 33 40 37 35 36 36
22 22 22 22 21 20 18 18 17 16 15 13 13 18 21 17 15 23 24 29 28 30 28 33 30 24 26 22 22 25 24 22 23 30 28 26 28 34 34 36 39 38 41
21 21 21 20 20 19 19 18 18 16 15 15 16 15 13 11 13 16 17 20 25 30 34 33 31 30 34 35 29 29 29 29 30 30 34 34 35 36 38 40 41 42 44
21 20 20 20 19 19 19 19 17 16 16 15 15 14 14 14 14 11 9 9 9 7 9 8 13 17 21 26 29 32 31 30 31 31 32 33 33 35 36 34 32 31 29
20 20 21 21 20 21 21 22 21 20 19 18 18 17 17 17 16 16 15 14 13 12 11 11 9 7 7 10 12 14 16 17 20 20 21 22 23 23 24 24 24 23 23
19 20 20 21 22 23 24 24 23 22 22 21 21 20 19 19 19 19 20 21 20 17 16 16 15 15 15 14 14 15 16 16 17 19 20 22 23 25 25 25 25 25 24
21 21 22 23 23 23 24 25 25 26 26 26 26 25 24 23 22 22 21 21 22 23 24 22 21 20 19 18 18 18 19 19 19 20 21 21 21 21 22 22 22 23 24
23 24 25 27 28 29 30 30 28 27 27 28 28 28 28 27 26 26 25 25 24 23 23 22 23 22 22 23 23 22 22 21 22 22 22 22 22 22 22 23 23 23 22
26 27 27 28 29 29 30 31 32 32 31 30 29 29 29 29 28 27 26 25 25 25 24 23 23 23 22 21 20 19 19 18 18 18 18 18 18 19 19 20 21 22 23
29 30 30 30 30 30 30 31 31 32 32 32 32 30 29 29 28 27 27 26 25 25 24 24 24 23 23 23 23 22 21 21 20 20 20 21 21 22 23 23 24 24 24
33 33 32 32 32 32 32 32 31 31 31 31 31 30 29 28 28 27 26 25 26 25 24 24 24 24 24 24 23 23 23 23 23 23 23 23 23 23 23 23 23 23 24
36 36 35 35 34 33 33 32 31 31 31 31 30 29 28 27 27 27 26 24 23 23 23 23 23 23 23 23 23 23 23 23 23 23 22 22 22 22 21 21 21 21 21
37 37 37 36 36 34 33 32 32 31 30 29 29 29 27 26 25 26 25 24 22 21 20 21 21 21 21 21 21 21 21 21 21 21 21 21 20 20 19 19 19 19 19
37 37 37 36 35 34 34 33 32 31 30 29 28 28 28 27 25 24 24 23 22 21 20 20 20 20 20 20 19 19 19 19 19 19 18 18 18 18 18 18 18 18 18
39 38 37 36 35 35 34 32 31 30 29 29 28 27 25 26 25 25 24 24 23 21 19 19 19 19 18 18 18 18 18 18 18 18 18 18 18 18 18 18 18 18 18
Wind_Direction
225 228 228 229 220 215 224 229 230 229 235 248 256 247 240 241 242 242 248 258 268 271 273 270 269 259 260 247 245 251 253 255 240 231 236 229 229 222 234 234 232 235 234
224 220 222 219 222 221 221 226 227 233 244 255 253 235 229 237 245 253 263 270 274 276 273 271 270 263 255 250 251 240 247 246 237 238 232 235 229 219 229 233 232 234 233
207 212 214 213 211 212 214 230 236 241 243 246 233 234 232 239 248 260 268 277 280 279 275 266 262 259 257 260 253 255 242 239 242 240 230 235 235 219 224 230 230 231 230
203 215 212 214 215 217 219 229 234 229 227 242 231 240 243 250 257 267 277 281 281 279 275 266 256 255 253 257 248 249 243 245 238 231 235 235 238 243 218 226 227 229 229
218 245 223 218 222 220 214 217 219 216 235 234 235 243 249 256 267 276 278 273 273 286 287 274 259 255 250 251 249 245 244 239 242 235 238 233 238 233 218 218 229 221 226
224 228 232 215 215 225 232 226 229 228 237 230 234 244 253 272 270 269 270 265 279 286 301 284 262 255 262 248 252 246 239 248 238 237 245 236 239 243 217 223 221 234 239
244 202 187 214 210 202 218 254 235 243 237 229 245 267 263 262 265 266 271 277 287 298 305 284 267 264 245 247 249 245 250 243 244 242 236 243 232 229 225 230 228 230 237
238 267 241 215 216 214 221 241 258 252 234 235 241 246 267 261 258 258 277 282 284 293 299 304 271 251 248 245 239 241 241 239 235 242 241 227 237 229 237 234 243 234 236
253 255 274 281 238 221 203 247 249 252 258 243 240 251 264 256 257 253 261 272 280 284 299 304 294 260 234 258 245 238 245 247 229 245 220 232 232 230 232 234 233 238 251
11 348 270 264 283 286 267 246 256 238 249 247 257 260 265 260 247 244 254 270 273 284 289 287 291 297 256 283 247 249 243 229 228 216 233 223 222 236 236 248 260 260 255
48 46 37 3 319 269 258 278 257 261 255 246 250 234 244 255 253 242 246 248 265 267 276 277 263 262 278 232 238 240 233 236 228 224 227 239 241 243 251 249 249 243 243
43 40 40 41 40 35 20 343 305 292 282 266 262 268 247 244 250 253 258 252 254 253 260 270 260 261 254 250 257 271 234 253 248 258 240 245 240 245 243 243 240 251 245
37 35 35 35 34 33 30 26 21 12 358 335 303 281 279 290 256 240 245 236 257 261 259 258 260 255 252 250 254 249 252 250 252 255 253 253 248 241 244 245 243 252 250
35 31 28 24 24 21 20 17 15 8 5 4 359 353 345 332 296 293 273 258 249 246 247 253 252 253 255 258 260 253 238 246 248 252 251 251 252 249 245 245 245 244 243
20 17 14 13 12 11 9 8 4 359 354 352 350 347 340 335 330 330 326 316 310 293 267 240 238 239 241 239 243 245 245 248 248 243 239 239 239 243 245 242 238 237 238
4 0 359 357 356 354 351 349 346 345 344 341 337 330 325 323 325 321 315 312 310 303 298 297 289 271 255 246 243 238 238 237 237 238 240 241 241 240 240 242 246 251 257
355 354 352 350 346 343 340 337 333 328 326 323 321 318 316 312 306 300 299 304 306 300 294 291 287 283 279 271 261 256 255 252 250 249 252 255 257 258 260 261 262 263 263
346 346 344 342 339 335 331 327 324 322 320 317 314 310 307 304 301 298 297 293 285 287 290 290 287 285 281 276 272 268 267 265 264 264 266 268 268 268 268 268 267 267 267
339 338 337 336 335 332 330 327 324 319 315 313 311 308 306 303 299 296 295 294 292 289 288 286 283 280 278 277 276 275 273 271 269 267 265 265 266 268 272 276 279 281 282
333 333 332 330 327 325 322 319 318 318 317 314 310 307 305 303 300 298 294 291 289 288 287 285 284 284 284 283 282 280 278 277 275 276 276 275 273 272 272 271 272 274 276
330 330 328 326 323 321 319 316 314 312 312 312 311 309 306 303 301 298 295 292 288 284 282 281 280 279 277 277 278 278 277 275 275 274 272 271 271 272 272 274 276 277 278
327 325 323 322 321 320 318 315 312 310 308 308 309 308 307 304 301 299 296 292 290 288 285 281 279 277 276 275 274 273 273 273 272 272 272 272 273 274 274 274 275 276 277
324 322 321 320 318 316 314 312 309 307 306 305 306 306 305 302 300 298 297 296 291 287 285 283 281 278 277 276 275 274 274 273 273 273 273 273 273 274 275 275 276 276 276
321 319 318 316 315 313 312 310 307 305 304 303 302 302 303 301 298 298 298 298 295 290 286 283 282 279 278 276 275 274 273 272 272 273 273 273 273 273 273 274 276 278 279
319 317 316 315 315 313 311 309 308 306 304 303 301 299 298 298 297 295 295 296 296 294 290 285 282 281 280 280 279 278 277 276 274 273 273 273 274 275 275 276 276 277 278
318 317 316 316 315 315 314 312 309 308 305 303 302 300 296 294 293 293 293 293 293 292 290 288 285 283 281 279 277 276 275 275 275 275 275 275 275 276 277 278 278 280 281